QPF
0.02 0.03 0.02 0.02 0.01 0.01 0.02 0.03 0.03 0.03 0.03 0.02 0.02 0.03 0.02 0.01 0.01 0.00 0.00 0.01 0.01 0.01 0.01 0.01 0.01 0.01 0.02 0.01 0.01 0.02 0.01 0.01 0.02 0.03 0.04 0.05 0.04 0.04 0.05 0.06 0.06 0.05 0.04
0.01 0.02 0.02 0.02 0.02 0.02 0.02 0.03 0.03 0.02 0.02 0.02 0.02 0.02 0.02 0.01 0.01 0.00 0.01 0.01 0.01 0.01 0.01 0.00 0.01 0.01 0.01 0.01 0.01 0.02 0.02 0.02 0.02 0.03 0.04 0.05 0.06 0.05 0.07 0.06 0.08 0.06 0.05
0.01 0.01 0.03 0.02 0.02 0.02 0.02 0.03 0.02 0.02 0.02 0.01 0.01 0.01 0.01 0.01 0.00 0.01 0.01 0.01 0.01 0.01 0.01 0.01 0.01 0.01 0.01 0.01 0.01 0.01 0.02 0.03 0.02 0.02 0.02 0.02 0.03 0.04 0.06 0.07 0.08 0.08 0.09
0.01 0.02 0.02 0.02 0.02 0.01 0.02 0.03 0.03 0.02 0.01 0.01 0.01 0.01 0.01 0.01 0.00 0.01 0.01 0.01 0.02 0.02 0.01 0.01 0.01 0.01 0.01 0.01 0.01 0.01 0.02 0.02 0.02 0.01 0.01 0.01 0.01 0.02 0.04 0.05 0.07 0.07 0.08
0.01 0.01 0.02 0.02 0.02 0.01 0.01 0.02 0.03 0.03 0.03 0.02 0.02 0.01 0.01 0.01 0.01 0.01 0.01 0.01 0.02 0.02 0.02 0.03 0.03 0.02 0.02 0.02 0.02 0.02 0.02 0.02 0.02 0.01 0.01 0.01 0.02 0.03 0.04 0.03 0.05 0.06 0.06
0.01 0.01 0.02 0.02 0.02 0.02 0.02 0.03 0.03 0.04 0.04 0.03 0.02 0.01 0.01 0.01 0.01 0.02 0.01 0.01 0.01 0.02 0.03 0.03 0.03 0.03 0.02 0.02 0.02 0.02 0.03 0.03 0.03 0.02 0.01 0.01 0.02 0.04 0.06 0.05 0.04 0.05 0.05
0.00 0.01 0.02 0.02 0.02 0.02 0.02 0.02 0.03 0.03 0.03 0.02 0.02 0.01 0.01 0.01 0.01 0.02 0.01 0.02 0.02 0.02 0.03 0.03 0.03 0.03 0.02 0.02 0.02 0.02 0.03 0.04 0.04 0.03 0.01 0.02 0.03 0.04 0.06 0.06 0.06 0.05 0.05
0.01 0.01 0.02 0.02 0.01 0.02 0.02 0.02 0.03 0.04 0.04 0.03 0.03 0.02 0.02 0.02 0.01 0.02 0.02 0.02 0.01 0.01 0.02 0.02 0.02 0.02 0.02 0.03 0.02 0.02 0.03 0.03 0.03 0.03 0.02 0.03 0.03 0.04 0.06 0.07 0.07 0.07 0.07
0.01 0.01 0.02 0.02 0.02 0.03 0.03 0.02 0.03 0.04 0.05 0.06 0.05 0.04 0.03 0.03 0.02 0.03 0.03 0.02 0.02 0.02 0.02 0.02 0.02 0.02 0.02 0.02 0.02 0.03 0.03 0.03 0.02 0.02 0.02 0.04 0.04 0.05 0.05 0.05 0.06 0.07 0.07
0.01 0.01 0.02 0.02 0.02 0.03 0.03 0.03 0.04 0.05 0.06 0.07 0.06 0.05 0.04 0.03 0.03 0.04 0.03 0.03 0.03 0.03 0.03 0.03 0.03 0.03 0.03 0.03 0.03 0.03 0.03 0.03 0.02 0.02 0.03 0.03 0.03 0.04 0.05 0.05 0.05 0.06 0.06
0.01 0.01 0.01 0.01 0.02 0.02 0.02 0.02 0.04 0.05 0.05 0.07 0.07 0.07 0.06 0.05 0.05 0.05 0.04 0.05 0.05 0.05 0.05 0.06 0.08 0.07 0.05 0.04 0.04 0.03 0.03 0.02 0.02 0.03 0.03 0.02 0.02 0.02 0.04 0.05 0.05 0.06 0.06
0.01 0.01 0.01 0.02 0.03 0.04 0.04 0.05 0.06 0.06 0.06 0.08 0.08 0.09 0.08 0.06 0.08 0.06 0.06 0.06 0.06 0.05 0.05 0.05 0.06 0.06 0.05 0.04 0.04 0.05 0.03 0.02 0.02 0.03 0.03 0.02 0.02 0.02 0.03 0.04 0.04 0.05 0.05
0.02 0.02 0.02 0.03 0.04 0.07 0.11 0.10 0.09 0.09 0.08 0.08 0.09 0.08 0.08 0.07 0.06 0.06 0.05 0.05 0.04 0.03 0.03 0.03 0.03 0.04 0.05 0.05 0.07 0.05 0.03 0.03 0.03 0.03 0.02 0.02 0.03 0.03 0.04 0.05 0.05 0.07 0.09
0.02 0.02 0.02 0.04 0.06 0.05 0.07 0.10 0.09 0.10 0.10 0.10 0.08 0.08 0.07 0.06 0.06 0.05 0.05 0.05 0.05 0.04 0.05 0.05 0.04 0.04 0.04 0.05 0.05 0.04 0.04 0.04 0.04 0.04 0.03 0.03 0.02 0.03 0.04 0.04 0.05 0.07 0.08
0.02 0.02 0.02 0.02 0.04 0.05 0.05 0.06 0.06 0.08 0.11 0.12 0.11 0.10 0.09 0.08 0.07 0.07 0.06 0.07 0.06 0.06 0.05 0.04 0.04 0.03 0.04 0.04 0.04 0.03 0.04 0.05 0.05 0.04 0.02 0.02 0.03 0.03 0.03 0.03 0.03 0.04 0.06
0.03 0.04 0.03 0.03 0.04 0.05 0.05 0.05 0.05 0.06 0.08 0.10 0.12 0.10 0.10 0.10 0.09 0.07 0.07 0.06 0.04 0.03 0.03 0.02 0.02 0.02 0.03 0.03 0.02 0.02 0.03 0.03 0.04 0.04 0.02 0.02 0.02 0.03 0.04 0.05 0.05 0.04 0.05
0.03 0.05 0.04 0.03 0.03 0.04 0.05 0.05 0.07 0.06 0.08 0.10 0.10 0.10 0.11 0.12 0.10 0.07 0.05 0.04 0.03 0.03 0.02 0.02 0.02 0.02 0.02 0.02 0.02 0.03 0.02 0.02 0.02 0.02 0.02 0.02 0.02 0.02 0.02 0.03 0.04 0.05 0.05
0.04 0.06 0.06 0.04 0.03 0.04 0.04 0.04 0.07 0.07 0.11 0.14 0.15 0.16 0.14 0.14 0.13 0.09 0.05 0.03 0.03 0.03 0.03 0.02 0.02 0.02 0.02 0.02 0.02 0.03 0.02 0.03 0.02 0.02 0.01 0.01 0.02 0.02 0.01 0.02 0.03 0.03 0.04
0.04 0.06 0.07 0.06 0.05 0.05 0.06 0.08 0.12 0.10 0.09 0.08 0.09 0.13 0.15 0.11 0.09 0.08 0.06 0.04 0.03 0.04 0.04 0.03 0.03 0.03 0.03 0.02 0.02 0.03 0.03 0.02 0.02 0.02 0.02 0.02 0.02 0.02 0.02 0.02 0.02 0.03 0.04
0.05 0.05 0.07 0.07 0.07 0.07 0.06 0.07 0.12 0.13 0.12 0.11 0.10 0.10 0.11 0.12 0.10 0.08 0.06 0.05 0.04 0.04 0.03 0.03 0.04 0.04 0.04 0.04 0.03 0.03 0.04 0.03 0.03 0.02 0.02 0.01 0.01 0.02 0.02 0.02 0.02 0.02 0.02
0.06 0.06 0.05 0.06 0.06 0.07 0.06 0.07 0.09 0.11 0.12 0.13 0.16 0.14 0.11 0.10 0.11 0.10 0.08 0.06 0.05 0.04 0.03 0.03 0.03 0.03 0.04 0.04 0.04 0.05 0.03 0.02 0.02 0.02 0.01 0.01 0.01 0.02 0.02 0.03 0.03 0.03 0.03
0.05 0.05 0.05 0.04 0.04 0.04 0.06 0.06 0.07 0.07 0.10 0.09 0.11 0.14 0.13 0.10 0.09 0.10 0.09 0.07 0.06 0.05 0.05 0.03 0.03 0.03 0.03 0.04 0.05 0.05 0.04 0.03 0.02 0.01 0.03 0.03 0.02 0.02 0.02 0.02 0.03 0.03 0.03
0.04 0.04 0.05 0.06 0.06 0.05 0.07 0.06 0.05 0.05 0.06 0.07 0.06 0.07 0.11 0.12 0.11 0.10 0.10 0.09 0.07 0.05 0.05 0.05 0.05 0.03 0.04 0.04 0.05 0.06 0.05 0.04 0.03 0.02 0.02 0.02 0.02 0.02 0.02 0.02 0.03 0.03 0.03
0.03 0.03 0.04 0.07 0.07 0.06 0.06 0.06 0.06 0.05 0.06 0.07 0.07 0.06 0.07 0.09 0.11 0.10 0.09 0.09 0.08 0.07 0.06 0.06 0.06 0.05 0.05 0.05 0.06 0.05 0.05 0.05 0.05 0.04 0.03 0.01 0.01 0.01 0.01 0.01 0.02 0.02 0.03
0.02 0.02 0.02 0.04 0.05 0.05 0.05 0.05 0.05 0.07 0.07 0.08 0.09 0.08 0.06 0.06 0.07 0.08 0.10 0.09 0.08 0.09 0.09 0.08 0.07 0.06 0.06 0.07 0.07 0.05 0.04 0.04 0.04 0.04 0.05 0.03 0.02 0.02 0.02 0.02 0.01 0.02 0.02
0.03 0.02 0.02 0.02 0.03 0.03 0.03 0.05 0.04 0.05 0.04 0.05 0.09 0.11 0.09 0.07 0.07 0.07 0.07 0.09 0.09 0.09 0.09 0.09 0.08 0.08 0.07 0.07 0.07 0.05 0.04 0.03 0.03 0.04 0.04 0.04 0.03 0.02 0.03 0.02 0.02 0.02 0.02
MSLP
1006.31 1006.25 1006.48 1006.94 1007.51 1008.07 1008.52 1008.83 1009.00 1009.10 1009.20 1009.39 1009.69 1010.12 1010.63 1011.17 1011.66 1012.04 1012.31 1012.46 1012.56 1012.66 1012.81 1013.04 1013.36 1013.72 1014.10 1014.42 1014.67 1014.82 1014.89 1014.92 1014.94 1015.01 1015.15 1015.35 1015.61 1015.89 1016.17 1016.40 1016.59 1016.73 1016.84
1006.49 1006.52 1006.80 1007.27 1007.81 1008.30 1008.68 1008.91 1009.03 1009.09 1009.18 1009.39 1009.74 1010.23 1010.81 1011.40 1011.93 1012.33 1012.57 1012.70 1012.75 1012.80 1012.91 1013.12 1013.43 1013.82 1014.23 1014.59 1014.87 1015.03 1015.11 1015.11 1015.11 1015.13 1015.23 1015.41 1015.67 1015.96 1016.26 1016.55 1016.78 1016.97 1017.11
1006.54 1006.67 1007.01 1007.49 1008.02 1008.48 1008.82 1009.02 1009.11 1009.16 1009.25 1009.47 1009.84 1010.34 1010.94 1011.53 1012.05 1012.43 1012.65 1012.75 1012.77 1012.80 1012.90 1013.11 1013.44 1013.85 1014.28 1014.68 1014.98 1015.16 1015.23 1015.22 1015.18 1015.17 1015.22 1015.37 1015.59 1015.88 1016.20 1016.51 1016.79 1017.01 1017.19
1006.48 1006.69 1007.09 1007.61 1008.15 1008.62 1008.97 1009.17 1009.27 1009.32 1009.43 1009.64 1010.00 1010.48 1011.04 1011.60 1012.08 1012.42 1012.62 1012.69 1012.71 1012.74 1012.85 1013.09 1013.44 1013.87 1014.33 1014.74 1015.06 1015.24 1015.31 1015.28 1015.21 1015.17 1015.18 1015.29 1015.49 1015.76 1016.07 1016.38 1016.68 1016.94 1017.15
1006.34 1006.63 1007.08 1007.65 1008.23 1008.74 1009.12 1009.36 1009.50 1009.58 1009.70 1009.90 1010.23 1010.66 1011.15 1011.64 1012.06 1012.37 1012.54 1012.62 1012.66 1012.73 1012.88 1013.14 1013.52 1013.96 1014.43 1014.84 1015.15 1015.33 1015.38 1015.35 1015.27 1015.21 1015.21 1015.29 1015.46 1015.70 1015.99 1016.29 1016.59 1016.86 1017.09
1006.23 1006.56 1007.06 1007.67 1008.29 1008.85 1009.29 1009.59 1009.78 1009.91 1010.04 1010.23 1010.51 1010.88 1011.29 1011.71 1012.07 1012.34 1012.51 1012.62 1012.71 1012.83 1013.02 1013.32 1013.71 1014.16 1014.60 1014.99 1015.28 1015.44 1015.50 1015.47 1015.41 1015.36 1015.36 1015.44 1015.59 1015.81 1016.06 1016.34 1016.61 1016.86 1017.08
1006.22 1006.57 1007.09 1007.72 1008.37 1008.97 1009.47 1009.83 1010.08 1010.25 1010.39 1010.57 1010.81 1011.11 1011.45 1011.80 1012.11 1012.37 1012.56 1012.72 1012.87 1013.05 1013.30 1013.63 1014.02 1014.45 1014.85 1015.19 1015.44 1015.58 1015.64 1015.64 1015.62 1015.61 1015.66 1015.76 1015.91 1016.11 1016.34 1016.57 1016.79 1017.00 1017.19
1006.37 1006.72 1007.23 1007.85 1008.50 1009.12 1009.64 1010.04 1010.32 1010.53 1010.69 1010.86 1011.06 1011.32 1011.61 1011.91 1012.20 1012.46 1012.69 1012.90 1013.13 1013.38 1013.68 1014.02 1014.40 1014.77 1015.11 1015.39 1015.59 1015.71 1015.77 1015.81 1015.85 1015.91 1016.02 1016.18 1016.36 1016.56 1016.76 1016.94 1017.11 1017.26 1017.39
1006.72 1007.04 1007.51 1008.08 1008.69 1009.27 1009.78 1010.18 1010.48 1010.69 1010.87 1011.04 1011.23 1011.45 1011.72 1012.00 1012.29 1012.57 1012.85 1013.13 1013.42 1013.73 1014.06 1014.40 1014.74 1015.05 1015.31 1015.51 1015.65 1015.74 1015.82 1015.89 1016.00 1016.15 1016.34 1016.57 1016.79 1017.01 1017.20 1017.35 1017.46 1017.55 1017.62
1007.22 1007.50 1007.90 1008.40 1008.92 1009.42 1009.87 1010.23 1010.50 1010.72 1010.90 1011.07 1011.27 1011.49 1011.76 1012.05 1012.36 1012.68 1013.00 1013.34 1013.68 1014.02 1014.36 1014.69 1014.98 1015.21 1015.39 1015.50 1015.58 1015.64 1015.71 1015.82 1015.99 1016.21 1016.49 1016.78 1017.06 1017.30 1017.49 1017.62 1017.70 1017.74 1017.76
1007.83 1008.06 1008.38 1008.76 1009.17 1009.56 1009.90 1010.18 1010.41 1010.60 1010.78 1010.97 1011.18 1011.43 1011.72 1012.04 1012.39 1012.74 1013.11 1013.48 1013.85 1014.20 1014.53 1014.82 1015.05 1015.21 1015.30 1015.34 1015.35 1015.36 1015.42 1015.55 1015.75 1016.04 1016.37 1016.71 1017.04 1017.31 1017.51 1017.64 1017.71 1017.73 1017.73
1008.46 1008.64 1008.87 1009.14 1009.41 1009.66 1009.87 1010.06 1010.22 1010.38 1010.56 1010.77 1011.02 1011.31 1011.64 1012.00 1012.38 1012.77 1013.16 1013.54 1013.91 1014.25 1014.55 1014.79 1014.96 1015.05 1015.07 1015.03 1014.98 1014.96 1014.99 1015.11 1015.32 1015.62 1015.98 1016.35 1016.70 1016.99 1017.21 1017.35 1017.43 1017.46 1017.47
1009.02 1009.16 1009.32 1009.47 1009.61 1009.72 1009.81 1009.89 1009.99 1010.11 1010.29 1010.53 1010.83 1011.18 1011.56 1011.96 1012.37 1012.77 1013.16 1013.53 1013.88 1014.18 1014.44 1014.63 1014.75 1014.78 1014.74 1014.66 1014.57 1014.51 1014.51 1014.60 1014.78 1015.06 1015.40 1015.76 1016.10 1016.39 1016.62 1016.78 1016.88 1016.95 1017.00
1009.46 1009.57 1009.66 1009.72 1009.75 1009.74 1009.73 1009.73 1009.77 1009.88 1010.07 1010.34 1010.69 1011.09 1011.52 1011.95 1012.38 1012.78 1013.15 1013.49 1013.79 1014.04 1014.25 1014.39 1014.47 1014.47 1014.41 1014.31 1014.20 1014.11 1014.08 1014.14 1014.28 1014.51 1014.79 1015.10 1015.41 1015.68 1015.89 1016.06 1016.19 1016.29 1016.38
1009.73 1009.81 1009.86 1009.86 1009.82 1009.74 1009.66 1009.61 1009.63 1009.74 1009.95 1010.25 1010.64 1011.09 1011.55 1012.01 1012.43 1012.82 1013.15 1013.44 1013.68 1013.88 1014.03 1014.14 1014.20 1014.20 1014.15 1014.06 1013.96 1013.88 1013.84 1013.86 1013.95 1014.11 1014.32 1014.56 1014.80 1015.02 1015.21 1015.37 1015.51 1015.63 1015.76
1009.82 1009.89 1009.91 1009.89 1009.82 1009.72 1009.63 1009.58 1009.60 1009.73 1009.96 1010.30 1010.72 1011.19 1011.67 1012.13 1012.54 1012.88 1013.17 1013.40 1013.58 1013.72 1013.84 1013.92 1013.98 1014.00 1014.00 1013.96 1013.92 1013.87 1013.85 1013.85 1013.91 1014.01 1014.14 1014.29 1014.46 1014.61 1014.75 1014.88 1015.00 1015.12 1015.24
1009.77 1009.82 1009.84 1009.82 1009.76 1009.70 1009.65 1009.64 1009.70 1009.86 1010.12 1010.48 1010.92 1011.38 1011.85 1012.29 1012.67 1012.97 1013.20 1013.37 1013.50 1013.60 1013.68 1013.76 1013.84 1013.91 1013.97 1014.01 1014.05 1014.07 1014.09 1014.12 1014.16 1014.22 1014.29 1014.37 1014.46 1014.54 1014.61 1014.69 1014.76 1014.84 1014.93
1009.64 1009.66 1009.68 1009.69 1009.69 1009.69 1009.72 1009.78 1009.91 1010.12 1010.41 1010.78 1011.20 1011.64 1012.08 1012.48 1012.81 1013.07 1013.25 1013.37 1013.45 1013.52 1013.59 1013.67 1013.78 1013.90 1014.04 1014.17 1014.30 1014.41 1014.50 1014.58 1014.64 1014.69 1014.72 1014.75 1014.77 1014.79 1014.79 1014.80 1014.81 1014.83 1014.86
1009.48 1009.46 1009.49 1009.54 1009.62 1009.72 1009.84 1010.00 1010.21 1010.47 1010.78 1011.14 1011.54 1011.94 1012.32 1012.66 1012.95 1013.16 1013.30 1013.38 1013.44 1013.49 1013.55 1013.65 1013.78 1013.96 1014.16 1014.38 1014.60 1014.81 1014.98 1015.12 1015.22 1015.29 1015.32 1015.32 1015.30 1015.26 1015.21 1015.15 1015.09 1015.04 1014.99
1009.36 1009.31 1009.33 1009.43 1009.59 1009.79 1010.02 1010.29 1010.57 1010.88 1011.21 1011.55 1011.90 1012.25 1012.57 1012.85 1013.08 1013.26 1013.37 1013.44 1013.49 1013.53 1013.60 1013.71 1013.86 1014.07 1014.33 1014.61 1014.90 1015.18 1015.42 1015.63 1015.78 1015.87 1015.91 1015.91 1015.87 1015.81 1015.72 1015.61 1015.50 1015.38 1015.26
1009.34 1009.25 1009.27 1009.40 1009.62 1009.92 1010.26 1010.62 1010.98 1011.34 1011.67 1011.99 1012.29 1012.57 1012.83 1013.06 1013.25 1013.40 1013.51 1013.58 1013.64 1013.69 1013.77 1013.88 1014.05 1014.27 1014.54 1014.84 1015.17 1015.48 1015.77 1016.01 1016.20 1016.32 1016.38 1016.39 1016.35 1016.27 1016.17 1016.04 1015.90 1015.75 1015.59
1009.46 1009.33 1009.33 1009.48 1009.76 1010.13 1010.55 1011.00 1011.43 1011.81 1012.16 1012.45 1012.71 1012.93 1013.14 1013.32 1013.49 1013.64 1013.75 1013.85 1013.93 1014.01 1014.09 1014.21 1014.37 1014.57 1014.83 1015.12 1015.42 1015.73 1016.01 1016.26 1016.45 1016.58 1016.65 1016.67 1016.64 1016.57 1016.47 1016.35 1016.21 1016.06 1015.89
1009.73 1009.56 1009.55 1009.70 1010.01 1010.43 1010.91 1011.42 1011.89 1012.31 1012.66 1012.94 1013.16 1013.35 1013.52 1013.68 1013.84 1014.00 1014.14 1014.27 1014.39 1014.50 1014.60 1014.72 1014.86 1015.03 1015.24 1015.48 1015.73 1015.98 1016.22 1016.42 1016.58 1016.69 1016.74 1016.75 1016.72 1016.66 1016.59 1016.49 1016.38 1016.27 1016.14
1010.16 1009.97 1009.93 1010.08 1010.38 1010.82 1011.34 1011.88 1012.39 1012.83 1013.19 1013.46 1013.67 1013.84 1014.00 1014.15 1014.32 1014.50 1014.68 1014.86 1015.02 1015.16 1015.29 1015.41 1015.53 1015.67 1015.81 1015.98 1016.15 1016.32 1016.48 1016.60 1016.69 1016.74 1016.75 1016.72 1016.68 1016.62 1016.56 1016.50 1016.44 1016.37 1016.30
1010.72 1010.52 1010.47 1010.59 1010.88 1011.32 1011.84 1012.39 1012.91 1013.37 1013.74 1014.02 1014.23 1014.40 1014.55 1014.72 1014.90 1015.11 1015.33 1015.56 1015.76 1015.95 1016.10 1016.23 1016.34 1016.45 1016.54 1016.64 1016.73 1016.81 1016.86 1016.89 1016.89 1016.85 1016.78 1016.70 1016.62 1016.54 1016.48 1016.44 1016.42 1016.40 1016.40
1011.38 1011.20 1011.14 1011.24 1011.50 1011.91 1012.41 1012.95 1013.47 1013.93 1014.31 1014.60 1014.82 1015.00 1015.17 1015.35 1015.56 1015.80 1016.05 1016.31 1016.56 1016.78 1016.97 1017.11 1017.23 1017.31 1017.38 1017.42 1017.45 1017.45 1017.41 1017.34 1017.24 1017.11 1016.95 1016.80 1016.65 1016.53 1016.44 1016.40 1016.39 1016.41 1016.44
Thickness
5812 5809 5797 5795 5793 5791 5789 5788 5786 5784 5781 5779 5777 5775 5773 5771 5770 5769 5767 5766 5764 5763 5762 5761 5759 5758 5757 5756 5755 5753 5752 5751 5751 5749 5748 5747 5746 5745 5744 5743 5743 5745 5742
5813 5806 5795 5793 5791 5789 5787 5785 5783 5781 5779 5777 5774 5772 5770 5769 5767 5766 5765 5764 5762 5761 5760 5758 5757 5755 5754 5753 5752 5751 5750 5749 5748 5747 5746 5745 5744 5743 5742 5741 5741 5742 5739
5809 5803 5794 5790 5788 5786 5784 5783 5780 5778 5776 5774 5772 5770 5768 5766 5764 5763 5762 5761 5760 5759 5757 5756 5754 5753 5752 5750 5749 5748 5747 5746 5746 5745 5745 5748 5745 5742 5740 5739 5738 5738 5737
5805 5800 5794 5787 5785 5783 5781 5780 5777 5775 5773 5771 5769 5767 5765 5763 5762 5760 5759 5758 5757 5756 5754 5753 5752 5751 5749 5748 5746 5746 5745 5744 5744 5744 5747 5748 5747 5741 5739 5737 5736 5735 5735
5800 5796 5790 5784 5781 5779 5777 5776 5774 5771 5769 5767 5765 5763 5762 5760 5759 5758 5756 5755 5754 5752 5751 5751 5749 5748 5747 5746 5744 5743 5742 5742 5742 5743 5747 5747 5744 5739 5737 5735 5734 5734 5733
5796 5793 5787 5781 5778 5775 5774 5772 5770 5767 5765 5763 5762 5760 5758 5757 5755 5754 5753 5752 5751 5750 5748 5747 5746 5745 5744 5743 5742 5741 5740 5740 5741 5745 5746 5744 5742 5737 5734 5733 5732 5731 5731
5794 5791 5785 5777 5774 5772 5770 5768 5766 5763 5761 5760 5758 5756 5754 5753 5752 5751 5750 5748 5748 5747 5745 5744 5743 5742 5742 5741 5740 5739 5738 5738 5741 5745 5743 5742 5739 5735 5732 5731 5730 5729 5729
5791 5787 5780 5773 5770 5768 5766 5764 5762 5760 5758 5756 5754 5753 5751 5749 5748 5747 5746 5745 5744 5743 5742 5741 5740 5739 5738 5738 5737 5736 5736 5735 5739 5742 5740 5739 5734 5732 5730 5729 5728 5727 5726
5788 5784 5779 5773 5768 5764 5762 5760 5759 5757 5755 5753 5751 5749 5747 5746 5745 5743 5743 5741 5740 5739 5738 5737 5736 5735 5734 5734 5734 5733 5733 5734 5737 5739 5738 5736 5731 5729 5727 5726 5725 5724 5724
5783 5779 5775 5772 5769 5765 5761 5757 5755 5753 5751 5750 5747 5745 5744 5743 5741 5740 5740 5737 5736 5736 5735 5734 5733 5732 5731 5731 5731 5730 5730 5731 5737 5738 5736 5732 5728 5725 5724 5723 5722 5721 5721
5775 5774 5772 5770 5766 5764 5761 5756 5752 5749 5748 5746 5744 5742 5742 5743 5742 5739 5737 5734 5733 5732 5731 5730 5730 5729 5729 5728 5728 5728 5729 5734 5737 5735 5732 5728 5725 5722 5721 5720 5719 5719 5718
5768 5768 5768 5766 5763 5761 5758 5755 5753 5750 5747 5745 5744 5742 5742 5741 5740 5738 5734 5732 5730 5729 5728 5727 5727 5727 5728 5730 5729 5728 5731 5733 5733 5731 5728 5724 5721 5719 5718 5717 5716 5716 5715
5766 5763 5763 5761 5757 5757 5755 5752 5751 5749 5745 5743 5741 5740 5738 5738 5736 5735 5734 5731 5730 5728 5729 5727 5727 5729 5729 5729 5729 5729 5730 5731 5730 5729 5726 5721 5718 5716 5715 5714 5714 5713 5713
5761 5758 5758 5756 5752 5751 5751 5749 5747 5746 5743 5741 5738 5737 5736 5735 5734 5733 5731 5730 5729 5728 5727 5727 5727 5727 5726 5726 5726 5727 5727 5727 5726 5725 5721 5717 5715 5713 5712 5711 5710 5710 5710
5755 5754 5752 5749 5746 5745 5744 5744 5743 5741 5740 5738 5736 5734 5733 5732 5731 5729 5728 5726 5726 5726 5725 5724 5725 5724 5723 5724 5723 5723 5723 5722 5721 5720 5718 5714 5711 5710 5709 5708 5707 5707 5706
5751 5748 5747 5744 5741 5740 5739 5738 5738 5737 5735 5734 5733 5731 5730 5729 5726 5725 5724 5722 5723 5723 5722 5721 5721 5720 5720 5720 5720 5719 5718 5717 5715 5714 5714 5711 5709 5707 5705 5704 5704 5703 5703
5747 5744 5742 5740 5737 5735 5734 5734 5733 5733 5732 5731 5729 5727 5725 5724 5723 5722 5722 5720 5720 5719 5717 5717 5717 5717 5717 5717 5715 5714 5713 5712 5711 5710 5710 5709 5707 5704 5702 5701 5700 5699 5698
5743 5739 5737 5737 5733 5730 5729 5729 5730 5729 5728 5727 5726 5724 5722 5720 5719 5718 5718 5718 5716 5715 5715 5714 5714 5713 5712 5712 5711 5711 5709 5707 5706 5705 5705 5704 5704 5703 5700 5697 5695 5694 5694
5739 5735 5731 5731 5729 5727 5725 5724 5724 5723 5723 5722 5722 5720 5718 5717 5715 5715 5715 5713 5712 5712 5711 5711 5711 5709 5707 5706 5706 5705 5704 5704 5702 5701 5700 5699 5698 5697 5696 5693 5691 5689 5689
5735 5730 5728 5726 5724 5722 5721 5720 5719 5718 5718 5718 5717 5716 5714 5713 5712 5712 5712 5709 5709 5708 5707 5706 5704 5703 5702 5701 5702 5700 5699 5699 5698 5696 5695 5694 5692 5691 5691 5690 5689 5687 5685
5729 5726 5723 5721 5719 5718 5717 5716 5714 5714 5714 5714 5714 5711 5710 5710 5709 5708 5709 5706 5705 5704 5702 5701 5700 5698 5697 5697 5695 5693 5694 5694 5693 5691 5690 5689 5688 5687 5686 5685 5685 5684 5683
5725 5723 5719 5717 5716 5714 5714 5713 5712 5711 5711 5711 5710 5707 5707 5706 5705 5705 5704 5704 5702 5700 5698 5696 5695 5694 5693 5692 5689 5686 5685 5686 5686 5688 5685 5684 5683 5683 5682 5681 5680 5679 5679
5723 5721 5719 5715 5714 5712 5711 5710 5708 5707 5706 5706 5705 5704 5703 5702 5701 5700 5699 5698 5698 5697 5695 5692 5691 5689 5687 5687 5686 5683 5680 5680 5681 5682 5680 5679 5678 5677 5677 5677 5675 5674 5673
5721 5718 5716 5713 5711 5709 5708 5708 5706 5704 5702 5702 5702 5701 5699 5698 5697 5696 5694 5693 5693 5693 5691 5690 5689 5686 5683 5682 5681 5680 5680 5680 5674 5674 5676 5676 5674 5672 5672 5673 5673 5671 5669
5720 5717 5714 5711 5709 5707 5706 5705 5702 5702 5701 5701 5699 5697 5696 5695 5694 5693 5692 5690 5689 5688 5687 5685 5683 5681 5680 5678 5677 5676 5675 5674 5673 5671 5670 5670 5671 5671 5670 5668 5667 5667 5666
5719 5716 5713 5708 5706 5705 5704 5702 5700 5698 5698 5697 5695 5694 5693 5693 5691 5690 5689 5687 5685 5685 5683 5681 5679 5678 5676 5674 5673 5673 5672 5671 5670 5669 5667 5666 5666 5667 5666 5664 5663 5663 5662